{"data":{"norad_id":45863,"intl_designator":"2020-045A","name":"APSTAR-6D","alt_names":[],"object_type":"PAYLOAD","status":"ACTIVE","operator":null,"country":"PRC","launch_date":"2020-07-09","launch_site_code":"XICLF","launch_vehicle":null,"mission":null,"orbit_class":"UNKNOWN","rcs_meters":null,"size_class":null,"mass_kg":null,"dimensions":null,"purposes":["comms"],"wikipedia_slug":null,"has_3d_model":false,"image_url":null,"decayed_at":null,"tle_current":{"epoch":"2026-09-19T20:41:38.647968Z","epoch_age_seconds":77113,"freshness":"FRESH","line1":"1 45863U 20045A   26262.86225287 -.00000321  00000+0  00000+0 0  9990","line2":"2 45863   0.0405 104.3155 0002400 342.4754 356.4349  1.00273112 22804","mean_motion":1.00273112,"eccentricity":0.00024,"inclination_deg":0.0405,"raan_deg":104.3155,"arg_perigee_deg":342.4754,"mean_anomaly_deg":356.4349,"bstar":0,"rev_number":2280,"period_min":1436.0778989287,"perigee_km":35776.103512632,"apogee_km":35796.342405412,"semimajor_km":42164.359959022,"source":"CELESTRAK","updated_at":"2026-09-20T09:00:35.294014Z"}}}